FW7828 Weather Reports


time (UTC)temp
C
wind
direction
speed
KPH
gust
KPH
rain 1hr
cm
rain 24hr
cm
rain mn
cm
humidity
%
barometer
mb
20260510054350 18 19 0.0 0.0 0.00 0.00 0.00 95 1010.7
20260510053845 18 18 0.0 0.0 0.00 0.00 0.00 95 1011.0
20260510053341 18 18 0.0 0.0 0.00 0.00 0.00 95 1011.0
20260510052838 18 359 0.0 0.0 0.00 0.00 0.00 95 1011.1
20260510052333 18 2 0.0 0.0 0.00 0.00 0.00 95 1010.9
20260510051830 18 17 0.0 0.0 0.00 0.00 0.00 94 1010.9
20260510051327 18 89 0.0 0.0 0.00 0.00 0.00 95 1011.0
20260510050824 18 337 0.0 0.0 0.00 0.00 0.00 94 1011.1
20260510050320 18 323 0.0 0.0 0.00 0.00 0.00 94 1011.1
20260510045817 18 332 0.0 0.0 0.00 0.00 0.00 94 1010.9
20260510045314 18 337 0.0 0.0 0.00 0.00 0.00 94 1011.2
20260510044811 18 331 0.0 0.0 0.00 0.00 0.00 94 1010.9
20260510044308 17 338 0.0 0.0 0.00 0.00 0.00 94 1011.2
20260510043804 17 327 0.0 0.0 0.00 0.00 0.00 94 1010.9
20260510043300 18 328 0.0 0.0 0.00 0.00 0.00 94 1010.6
20260510042758 17 335 0.0 0.0 0.00 0.00 0.00 94 1010.7
20260510042253 17 341 0.0 0.0 0.00 0.00 0.00 93 1010.8
20260510041750 17 332 0.0 0.0 0.00 0.00 0.00 93 1010.7
20260510041247 17 342 0.0 0.0 0.00 0.00 0.00 93 1010.7
20260510040745 17 341 0.0 0.0 0.00 0.00 0.00 93 1010.8
20260510040236 17 351 0.0 0.0 0.00 0.00 0.00 93 1010.7
20260510035731 17 358 0.0 0.0 0.00 0.00 0.00 93 1010.8
20260510035227 17 359 0.0 0.0 0.00 0.00 0.00 93 1010.6
20260510034723 17 41 0.0 0.0 0.00 0.00 0.00 92 1010.6
20260510034222 17 338 0.0 0.0 0.00 0.00 0.00 92 1010.5
20260510033717 17 337 0.0 0.0 0.00 0.00 0.00 92 1010.3
20260510033215 17 334 0.0 0.0 0.00 0.00 0.00 92 1010.6
20260510032711 17 341 0.0 0.0 0.00 0.00 0.00 92 1010.5
20260510032207 17 340 0.0 0.0 0.00 0.00 0.00 91 1010.4
20260510031702 17 340 0.0 0.0 0.00 0.00 0.00 91 1010.5
20260510031159 17 340 0.0 0.0 0.00 0.00 0.00 91 1010.2
20260510030658 18 342 0.0 0.0 0.00 0.00 0.00 91 1010.3
20260510030156 18 342 0.0 0.0 0.00 0.00 0.00 91 1010.3
20260510025653 18 341 0.0 0.0 0.00 0.00 0.00 91 1010.2
20260510025150 18 340 0.0 0.0 0.00 0.00 0.00 90 1010.2
20260510024647 18 330 0.0 0.0 0.00 0.00 0.00 90 1010.4
20260510024143 18 329 0.0 0.0 0.00 0.00 0.00 91 1010.6
20260510023639 18 335 0.0 0.0 0.00 0.00 0.00 90 1010.3
20260510023131 18 359 0.0 0.0 0.00 0.00 0.00 90 1010.2
20260510022631 18 326 0.0 0.0 0.00 0.00 0.00 89 1010.1
20260510022121 18 326 0.0 0.0 0.00 0.00 0.00 89 1010.1
20260510021616 18 325 0.0 0.0 0.00 0.00 0.00 89 1010.3
20260510021114 18 326 0.0 0.0 0.00 0.00 0.00 89 1010.2
20260510020608 18 335 0.0 0.0 0.00 0.00 0.00 88 1010.4
20260510020103 18 339 0.0 0.0 0.00 0.00 0.00 88 1010.3
20260510015600 18 339 0.0 0.0 0.00 0.00 0.00 88 1010.0
20260510015056 18 339 0.0 0.0 0.00 0.00 0.00 88 1010.2
20260510014551 18 0 0.0 0.0 0.00 0.00 0.00 87 1010.3
20260510014049 18 320 0.0 0.0 0.00 0.00 0.00 87 1010.2
20260510013544 18 319 0.0 0.0 0.00 0.00 0.00 87 1010.1
20260510013040 18 329 0.0 0.0 0.00 0.00 0.00 87 1010.2
20260510012539 18 344 0.0 0.0 0.00 0.00 0.00 87 1010.1
20260510012037 19 347 0.0 0.0 0.00 0.00 0.00 87 1010.2
20260510011536 19 336 0.0 0.0 0.00 0.00 0.00 87 1010.3
20260510011032 19 310 0.0 0.0 0.00 0.00 0.00 87 1010.0
20260510010529 19 333 0.0 1.6 0.00 0.00 0.00 86 1010.0
20260510010026 19 330 0.0 0.0 0.00 0.00 0.00 86 1010.1
20260510005521 20 334 0.0 0.0 0.00 0.00 0.00 85 1010.0
20260510005020 20 332 0.0 1.6 0.00 0.00 0.00 86 1010.0
20260510004517 19 350 1.6 1.6 0.00 0.00 0.00 87 1010.0
20260510004015 19 293 0.0 0.0 0.00 0.00 0.00 87 1009.8
20260510003511 19 333 0.0 0.0 0.00 0.00 0.00 87 1009.5
20260510003007 19 344 1.6 1.6 0.00 0.00 0.00 86 1009.5
20260510002503 20 334 0.0 0.0 0.00 0.00 0.00 86 1009.5
20260510001959 20 234 1.6 1.6 0.00 0.00 0.00 86 1009.4
20260510001457 20 355 0.0 0.0 0.00 0.00 0.00 86 1009.4
20260510000955 20 338 0.0 0.0 0.00 0.00 0.00 85 1009.4
20260510000450 20 340 0.0 0.0 0.00 0.00 0.00 85 1009.4
20260509235947 20 355 0.0 0.0 0.00 0.00 0.00 84 1009.2
20260509235444 20 338 0.0 0.0 0.00 0.00 0.00 84 1009.7
20260509234940 21 337 0.0 0.0 0.00 0.00 0.00 83 1009.4
20260509234437 21 337 0.0 0.0 0.00 0.00 0.00 82 1009.1
20260509233935 21 337 0.0 0.0 0.00 0.00 0.00 81 1009.2
20260509233432 21 337 0.0 0.0 0.00 0.00 0.00 80 1009.1
20260509232928 21 274 0.0 0.0 0.00 0.00 0.00 80 1009.2
20260509232426 21 339 0.0 0.0 0.00 0.00 0.00 79 1009.2
20260509231921 21 340 0.0 0.0 0.00 0.00 0.00 78 1009.3
20260509231418 22 301 0.0 0.0 0.00 0.00 0.00 79 1009.2
20260509230916 22 20 1.6 1.6 0.00 0.00 0.00 79 1009.1
20260509230413 22 333 0.0 0.0 0.00 0.00 0.00 80 1009.1
20260509225908 22 285 0.0 0.0 0.00 0.00 0.00 80 1009.3
20260509225406 22 269 0.0 0.0 0.00 0.00 0.00 79 1009.0
20260509224901 22 49 0.0 0.0 0.00 0.00 0.00 78 1008.8
20260509224357 22 109 0.0 0.0 0.00 0.00 0.00 78 1009.2
20260509223855 22 201 0.0 0.0 0.00 0.00 0.00 78 1009.1
20260509223351 22 182 0.0 0.0 0.00 0.00 0.00 78 1009.0
20260509222848 22 176 3.2 3.2 0.00 0.00 0.00 77 1009.2
20260509222343 22 236 0.0 0.0 0.00 0.00 0.00 76 1009.1
20260509221838 22 241 0.0 0.0 0.00 0.00 0.00 75 1009.2
20260509221336 22 267 0.0 0.0 0.00 0.00 0.00 75 1009.2
20260509220831 22 233 0.0 1.6 0.00 0.00 0.00 76 1008.9
20260509220328 22 250 0.0 0.0 0.00 0.00 0.00 74 1009.1
20260509215823 22 274 0.0 0.0 0.00 0.00 0.00 72 1008.9
20260509215320 22 254 0.0 0.0 0.00 0.00 0.00 72 1009.0
20260509214817 22 47 0.0 1.6 0.00 0.00 0.00 69 1009.0
20260509214314 23 236 0.0 0.0 0.00 0.00 0.00 69 1009.0
20260509213811 23 254 0.0 0.0 0.00 0.00 0.00 67 1009.0
20260509213307 23 248 0.0 0.0 0.00 0.00 0.00 64 1008.8
20260509212804 23 194 0.0 0.0 0.00 0.00 0.00 64 1008.8
20260509212305 23 196 0.0 0.0 0.00 0.00 0.00 65 1008.8
20260509211757 23 289 0.0 0.0 0.00 0.00 0.00 63 1008.7
20260509211253 23 139 0.0 0.0 0.00 0.00 0.00 63 1008.9
20260509210750 23 75 0.0 0.0 0.00 0.00 0.00 63 1009.0
20260509210248 23 160 1.6 3.2 0.00 0.00 0.00 61 1008.9
20260509205747 23 31 0.0 0.0 0.00 0.00 0.00 63 1009.0
20260509205242 23 117 1.6 1.6 0.00 0.00 0.00 61 1008.9
20260509204738 23 245 0.0 0.0 0.00 0.00 0.00 62 1009.0
20260509204235 23 162 0.0 0.0 0.00 0.00 0.00 63 1009.1
20260509203731 23 309 4.8 4.8 0.00 0.00 0.00 62 1008.9
20260509203229 23 130 1.6 1.6 0.00 0.00 0.00 60 1009.1
20260509202725 24 155 3.2 3.2 0.00 0.00 0.00 59 1009.1
20260509202220 25 171 0.0 0.0 0.00 0.00 0.00 55 1009.1
20260509201715 24 251 0.0 0.0 0.00 0.00 0.00 59 1008.8
20260509201212 23 208 0.0 1.6 0.00 0.00 0.00 60 1009.1
20260509200708 24 213 1.6 3.2 0.00 0.00 0.00 60 1009.2
20260509200204 24 131 3.2 4.8 0.00 0.00 0.00 59 1009.0
20260509195700 24 146 3.2 4.8 0.00 0.00 0.00 62 1009.3
20260509195155 24 164 3.2 4.8 0.00 0.00 0.00 60 1009.2
20260509194655 24 165 1.6 1.6 0.00 0.00 0.00 60 1009.3
20260509194152 24 165 4.8 8.0 0.00 0.00 0.00 60 1009.3
20260509193648 23 300 1.6 1.6 0.00 0.00 0.00 60 1009.5
20260509193144 23 296 0.0 0.0 0.00 0.00 0.00 57 1009.3
20260509192640 24 176 3.2 3.2 0.00 0.00 0.00 57 1009.3
20260509192136 24 52 0.0 0.0 0.00 0.00 0.00 55 1009.5
20260509191635 24 94 0.0 0.0 0.00 0.00 0.00 55 1009.3
20260509191132 24 135 1.6 1.6 0.00 0.00 0.00 56 1009.6
20260509190629 24 258 0.0 0.0 0.00 0.00 0.00 56 1009.8
20260509190127 24 149 4.8 8.0 0.00 0.00 0.00 54 1009.9
20260509185624 24 237 1.6 1.6 0.00 0.00 0.00 55 1009.9
20260509185120 23 123 0.0 0.0 0.00 0.00 0.00 55 1010.1
20260509184618 23 210 1.6 1.6 0.00 0.00 0.00 55 1010.0
20260509184115 24 138 3.2 3.2 0.00 0.00 0.00 53 1010.0
20260509183610 23 168 3.2 3.2 0.00 0.00 0.00 54 1009.9
20260509183106 23 174 1.6 1.6 0.00 0.00 0.00 54 1010.0
20260509182602 23 169 3.2 3.2 0.00 0.00 0.00 55 1010.0
20260509182059 23 159 4.8 4.8 0.00 0.00 0.00 53 1010.0
20260509181558 23 153 3.2 3.2 0.00 0.00 0.00 53 1010.0
20260509181054 23 79 3.2 8.0 0.00 0.00 0.00 52 1009.9
20260509180550 23 96 1.6 1.6 0.00 0.00 0.00 55 1010.0
20260509180048 23 130 1.6 1.6 0.00 0.00 0.00 56 1009.9
20260509175543 23 252 1.6 3.2 0.00 0.00 0.00 58 1009.9
20260509175040 23 178 4.8 8.0 0.00 0.00 0.00 53 1009.7
20260509174537 23 164 4.8 8.0 0.00 0.00 0.00 57 1010.0
20260509174032 23 176 4.8 9.7 0.00 0.00 0.00 56 1010.2
20260509173526 23 242 3.2 4.8 0.00 0.00 0.00 59 1010.2
20260509173023 23 180 1.6 1.6 0.00 0.00 0.00 62 1010.2
20260509172520 22 149 1.6 1.6 0.00 0.00 0.00 62 1010.4
20260509172016 22 165 6.4 8.0 0.00 0.00 0.00 61 1010.4
20260509171512 22 138 8.0 9.7 0.00 0.00 0.00 63 1010.4
20260509171009 22 176 4.8 4.8 0.00 0.00 0.00 60 1010.7
20260509170504 22 176 4.8 4.8 0.00 0.00 0.00 59 1010.7
20260509170000 23 181 4.8 8.0 0.00 0.00 0.00 59 1010.7
20260509165459 23 112 1.6 1.6 0.00 0.00 0.00 61 1010.5
20260509164955 23 215 8.0 11.3 0.00 0.00 0.00 59 1010.6
20260509164451 22 181 3.2 4.8 0.00 0.00 0.00 61 1010.5
20260509163947 23 164 8.0 12.9 0.00 0.00 0.00 55 1010.6
20260509163445 23 204 6.4 9.7 0.00 0.00 0.00 61 1010.5
20260509162943 22 181 6.4 8.0 0.00 0.00 0.00 65 1010.6
20260509162443 22 168 4.8 8.0 0.00 0.00 0.00 67 1010.6
20260509161938 22 173 4.8 4.8 0.00 0.00 0.00 68 1010.8
20260509161435 21 170 3.2 4.8 0.00 0.00 0.00 70 1010.8
20260509160930 21 216 0.0 0.0 0.00 0.00 0.00 71 1010.8
20260509160426 21 186 3.2 3.2 0.00 0.00 0.00 70 1010.9
20260509155921 22 55 1.6 3.2 0.00 0.00 0.00 68 1011.3
20260509155418 22 172 4.8 8.0 0.00 0.00 0.00 67 1011.4
20260509154915 22 186 6.4 8.0 0.00 0.00 0.00 68 1011.8
20260509154411 22 163 1.6 3.2 0.00 0.00 0.00 66 1011.8
20260509153908 22 172 6.4 8.0 0.00 0.00 0.00 67 1012.0
20260509153405 22 145 3.2 4.8 0.00 0.00 0.00 69 1012.1
20260509152902 22 172 3.2 4.8 0.00 0.00 0.00 70 1011.8
20260509152358 22 291 3.2 3.2 0.00 0.00 0.00 70 1012.4
20260509151855 21 309 0.0 1.6 0.00 0.00 0.00 74 1012.4
20260509151351 22 180 4.8 4.8 0.00 0.00 0.00 73 1012.3
20260509150850 22 243 3.2 3.2 0.00 0.00 0.00 73 1012.6
20260509150347 21 327 3.2 3.2 0.00 0.00 0.00 74 1012.5
20260509145845 21 334 0.0 0.0 0.00 0.00 0.00 74 1012.4
20260509145344 21 200 0.0 0.0 0.00 0.00 0.00 75 1012.5
20260509144841 21 15 1.6 1.6 0.00 0.00 0.00 75 1012.6
20260509144338 21 161 1.6 4.8 0.00 0.00 0.00 77 1012.4
20260509143835 21 151 3.2 3.2 0.00 0.00 0.00 77 1012.7
20260509143333 21 127 0.0 1.6 0.00 0.00 0.00 78 1012.9
20260509142829 20 155 1.6 1.6 0.00 0.00 0.00 80 1012.7
20260509142325 20 132 3.2 3.2 0.00 0.00 0.00 80 1012.7
20260509141821 21 221 0.0 1.6 0.00 0.00 0.00 79 1012.6
20260509141318 21 165 1.6 3.2 0.00 0.00 0.00 76 1012.6
20260509140814 21 179 3.2 3.2 0.00 0.00 0.00 75 1012.6
20260509140311 21 74 0.0 0.0 0.00 0.00 0.00 76 1012.4
20260509135809 21 169 0.0 1.6 0.00 0.00 0.00 78 1012.4
20260509135306 21 193 0.0 1.6 0.00 0.00 0.00 77 1012.4
20260509134804 20 109 1.6 1.6 0.00 0.00 0.00 79 1012.3
20260509134301 20 109 1.6 3.2 0.00 0.00 0.00 80 1012.5
20260509133758 20 257 0.0 0.0 0.00 0.00 0.00 81 1012.5
20260509133254 19 155 3.2 3.2 0.00 0.00 0.00 81 1012.5
20260509132753 19 163 1.6 1.6 0.00 0.00 0.00 81 1012.6
20260509132252 19 167 0.0 1.6 0.00 0.00 0.00 81 1012.7
20260509131748 19 266 0.0 0.0 0.00 0.00 0.00 81 1012.9
20260509131244 18 230 1.6 1.6 0.00 0.00 0.00 83 1012.8
20260509130741 18 169 1.6 1.6 0.00 0.00 0.00 82 1012.9
20260509130236 18 171 1.6 1.6 0.00 0.00 0.00 82 1012.9
20260509125733 18 220 1.6 1.6 0.00 0.00 0.00 83 1012.7
20260509125230 18 119 0.0 1.6 0.00 0.00 0.00 83 1012.7
20260509124726 18 112 1.6 1.6 0.00 0.00 0.00 84 1012.9
20260509124223 18 123 0.0 0.0 0.00 0.00 0.00 85 1013.0
20260509123722 17 117 0.0 0.0 0.00 0.00 0.00 85 1013.0
20260509123219 17 115 1.6 1.6 0.00 0.00 0.00 87 1012.9
20260509122714 17 127 1.6 1.6 0.00 0.00 0.00 90 1012.8
20260509122211 16 100 1.6 1.6 0.00 0.00 0.00 94 1012.9
20260509121707 16 76 0.0 0.0 0.00 0.00 0.00 95 1012.9
20260509121205 16 324 0.0 0.0 0.00 0.00 0.00 96 1012.8
20260509120703 16 323 0.0 0.0 0.00 0.00 0.00 96 1013.1
20260509120201 15 323 0.0 0.0 0.00 0.00 0.00 96 1013.0
20260509115658 15 322 0.0 0.0 0.00 0.00 0.00 96 1012.8
20260509115156 15 322 1.6 1.6 0.00 0.00 0.00 96 1013.2
20260509114654 14 343 0.0 0.0 0.00 0.00 0.00 96 1012.8
20260509114152 14 343 0.0 0.0 0.00 0.00 0.00 96 1012.9
20260509113650 14 343 0.0 0.0 0.00 0.00 0.00 96 1012.9
20260509113147 13 0 0.0 0.0 0.00 0.00 0.00 96 1012.8
20260509112644 13 323 1.6 1.6 0.00 0.00 0.00 96 1012.8
20260509112141 13 346 0.0 1.6 0.00 0.00 0.00 96 1012.9
20260509111638 13 318 1.6 3.2 0.00 0.00 0.00 95 1013.1
20260509111135 13 1 0.0 0.0 0.00 0.00 0.00 96 1013.0
20260509110632 13 350 0.0 0.0 0.00 0.00 0.00 96 1012.9
20260509110129 13 350 0.0 0.0 0.00 0.00 0.00 95 1013.0
20260509105627 13 350 0.0 0.0 0.00 0.00 0.00 95 1013.2
20260509105124 13 350 0.0 0.0 0.00 0.00 0.00 95 1012.7
20260509104621 13 350 0.0 0.0 0.00 0.00 0.00 95 1013.1
20260509104117 13 350 0.0 0.0 0.00 0.00 0.00 95 1013.0
20260509103615 12 350 0.0 0.0 0.00 0.00 0.00 95 1013.1
20260509103114 12 350 0.0 0.0 0.00 0.00 0.00 95 1013.0
20260509102610 12 350 1.6 1.6 0.00 0.00 0.00 95 1013.1
20260509102107 12 350 1.6 1.6 0.00 0.00 0.00 95 1013.1
20260509101604 12 350 0.0 0.0 0.00 0.00 0.00 95 1013.0
20260509101101 12 350 0.0 0.0 0.00 0.00 0.00 95 1012.9
20260509100558 12 351 0.0 0.0 0.00 0.00 0.00 95 1012.7
20260509100055 12 350 0.0 1.6 0.00 0.00 0.00 95 1012.8
20260509095551 12 350 0.0 0.0 0.00 0.00 0.00 95 1012.7
20260509095049 12 350 0.0 0.0 0.00 0.00 0.00 95 1012.8
20260509094545 12 350 0.0 0.0 0.00 0.00 0.00 95 1012.6
20260509094043 12 350 0.0 0.0 0.00 0.00 0.00 95 1012.8
20260509093541 12 350 0.0 0.0 0.00 0.00 0.00 95 1012.8
20260509093038 12 350 0.0 0.0 0.00 0.00 0.00 95 1012.8
20260509092536 12 350 0.0 0.0 0.00 0.00 0.00 95 1013.0
20260509092035 12 350 0.0 0.0 0.00 0.00 0.00 95 1013.2
20260509091531 12 350 0.0 0.0 0.00 0.00 0.00 95 1013.1
20260509091028 12 350 0.0 0.0 0.00 0.00 0.00 95 1013.4
20260509090525 12 350 0.0 0.0 0.00 0.00 0.00 95 1013.3
20260509090023 12 350 0.0 0.0 0.00 0.00 0.00 95 1013.2
20260509085520 12 350 0.0 0.0 0.00 0.00 0.00 95 1013.4
20260509085015 12 350 0.0 0.0 0.00 0.00 0.00 95 1013.3
20260509084513 12 350 0.0 0.0 0.00 0.00 0.00 95 1013.5
20260509084010 12 350 0.0 0.0 0.00 0.00 0.00 94 1013.6
20260509083507 12 350 0.0 0.0 0.00 0.00 0.00 94 1013.4
20260509083004 12 350 0.0 0.0 0.00 0.00 0.00 94 1013.5
20260509082501 12 350 0.0 0.0 0.00 0.00 0.00 94 1013.3
20260509081958 12 350 0.0 0.0 0.00 0.00 0.00 94 1013.2
20260509081455 12 350 0.0 0.0 0.00 0.00 0.00 94 1013.6
20260509080952 13 350 0.0 0.0 0.00 0.00 0.00 94 1013.6
20260509080450 12 350 0.0 0.0 0.00 0.00 0.00 94 1013.6
20260509075948 13 350 0.0 0.0 0.00 0.00 0.00 94 1013.5
20260509075445 13 350 0.0 0.0 0.00 0.00 0.00 94 1013.4
20260509074943 13 350 0.0 0.0 0.00 0.00 0.00 94 1013.6
20260509074440 13 350 0.0 0.0 0.00 0.00 0.00 94 1013.6
20260509073936 13 350 0.0 0.0 0.00 0.00 0.00 94 1013.6
20260509073433 13 350 0.0 0.0 0.00 0.00 0.00 94 1013.5
20260509072929 12 350 0.0 0.0 0.00 0.00 0.00 93 1013.3
20260509072426 12 350 0.0 0.0 0.00 0.00 0.00 93 1013.6
20260509071923 12 350 0.0 0.0 0.00 0.00 0.00 93 1013.5
20260509071420 12 350 0.0 0.0 0.00 0.00 0.00 93 1013.7
20260509070917 13 350 0.0 0.0 0.00 0.00 0.00 93 1013.6
20260509070414 13 350 0.0 0.0 0.00 0.00 0.00 93 1013.8
20260509065909 13 350 0.0 0.0 0.00 0.00 0.00 93 1013.8
20260509065406 13 350 0.0 0.0 0.00 0.00 0.00 93 1014.0
20260509064902 13 350 0.0 0.0 0.00 0.00 0.00 93 1013.9
20260509064400 13 350 0.0 0.0 0.00 0.00 0.00 93 1014.0
20260509063857 13 350 0.0 0.0 0.00 0.00 0.00 93 1014.1
20260509063353 13 350 0.0 0.0 0.00 0.00 0.00 93 1014.1
20260509062850 13 350 0.0 0.0 0.00 0.00 0.00 93 1014.1
20260509062347 13 350 0.0 0.0 0.00 0.00 0.00 93 1013.9
20260509061844 13 350 0.0 0.0 0.00 0.00 0.00 92 1014.1
20260509061343 13 350 0.0 0.0 0.00 0.00 0.00 92 1014.3
20260509060839 13 350 0.0 0.0 0.00 0.00 0.00 92 1014.3
20260509060336 13 350 0.0 0.0 0.00 0.00 0.00 92 1014.4
20260509055831 13 350 0.0 0.0 0.00 0.00 0.00 92 1014.7
20260509055327 13 350 0.0 0.0 0.00 0.00 0.00 92 1014.7
20260509054825 13 350 0.0 0.0 0.00 0.00 0.00 92 1014.5